Change the Weather History Date:

Thursday, November 17, 2011

  Actual Average Record
Temperature  
Mean Temperature 18 °F -  
Max Temperature 28 °F 38 °F 71 °F (1953)
Min Temperature 8 °F 22 °F -7 °F (1959)
Degree Days  
Heating Degree Days 47    
Moisture  
Dew Point 6 °F    
Average Humidity 60    
Maximum Humidity 92    
Minimum Humidity 31    
Precipitation  
Precipitation 0.00 in - - ()
Sea Level Pressure  
Sea Level Pressure 30.06 in    
Wind  
Wind Speed 8 mph (SW)    
Max Wind Speed 16 mph    
Max Gust Speed 20 mph    
Visibility 10 miles    
Events      
Averages and records for this station are not official NWS values.
T = Trace of Precipitation, MM = Missing Value Source: NWS Daily Summary

Daily Weather History Graph

Daily Weather History Graph

Search for Another Location

Airport or City:

Trip Planner

Search our weather history database for the weather conditions in past years. The results will help you decide how hot, cold, wet, or windy it might be!

Date:

Astronomy

Nov. 17, 2011 Rise Set
Actual Time 7:23 AM CST 4:48 PM CST
Civil Twilight 6:50 AM CST 5:21 PM CST
Nautical Twilight 6:14 AM CST 5:57 PM CST
Astronomical Twilight 5:39 AM CST 6:32 PM CST
Moon 11:17 PM CST (11/17) 12:27 PM CST (11/17)
Length of Visible Light 10h 30m
Length of Day
9h 25m
Waning Gibbous, 59% of the Moon is Illuminated
Nov 17
Waning Gibbous
Nov 18
Last Quarter
Nov 25
New
Dec 2
First Quarter
Dec 10
Full

Hourly Weather History & Observations

Time (CST) Temp. Windchill Dew Point Humidity Pressure Visibility Wind Dir Wind Speed Gust Speed Precip Events Conditions
12:14 AM 14.0 °F 2.9 °F 8.6 °F 79% 30.13 in 10.0 mi West 8.1 mph - N/A   Clear
12:33 AM 14.0 °F 1.2 °F 8.6 °F 79% 30.13 in 10.0 mi West 10.4 mph - N/A   Clear
12:54 AM 12.2 °F 1.7 °F 8.6 °F 85% 30.13 in 10.0 mi West 6.9 mph - N/A   Clear
1:14 AM 12.2 °F -0.2 °F 8.6 °F 85% 30.13 in 10.0 mi West 9.2 mph - N/A   Clear
1:53 AM 10.4 °F -0.4 °F 6.8 °F 85% 30.13 in 10.0 mi West 6.9 mph - N/A   Clear
2:14 AM 12.2 °F 0.7 °F 6.8 °F 79% 30.14 in 10.0 mi West 8.1 mph - N/A   Clear
2:33 AM 12.2 °F 0.7 °F 6.8 °F 79% 30.14 in 10.0 mi West 8.1 mph - N/A   Clear
2:54 AM 10.4 °F -0.4 °F 6.8 °F 85% 30.13 in 10.0 mi West 6.9 mph - N/A   Clear
3:14 AM 10.4 °F -0.4 °F 6.8 °F 85% 30.13 in 10.0 mi West 6.9 mph - N/A   Clear
3:34 AM 10.4 °F -1.5 °F 5.0 °F 79% 30.14 in 10.0 mi West 8.1 mph - N/A   Clear
3:53 AM 10.4 °F -1.5 °F 6.8 °F 85% 30.13 in 10.0 mi West 8.1 mph - N/A   Clear
4:14 AM 10.4 °F -2.4 °F 6.8 °F 85% 30.13 in 10.0 mi West 9.2 mph - N/A   Clear
4:34 AM 10.4 °F -3.3 °F 6.8 °F 85% 30.14 in 10.0 mi West 10.4 mph - N/A   Clear
4:54 AM 10.4 °F -2.4 °F 6.8 °F 85% 30.13 in 10.0 mi West 9.2 mph - N/A   Clear
5:14 AM 10.4 °F -3.3 °F 6.8 °F 85% 30.14 in 10.0 mi West 10.4 mph - N/A   Clear
5:34 AM 10.4 °F -1.5 °F 6.8 °F 85% 30.13 in 10.0 mi West 8.1 mph - N/A   Clear
5:54 AM 10.4 °F -2.4 °F 6.8 °F 85% 30.14 in 10.0 mi West 9.2 mph - N/A   Clear
6:14 AM 10.4 °F -1.5 °F 6.8 °F 85% 30.13 in 10.0 mi West 8.1 mph - N/A   Clear
6:34 AM 8.6 °F -4.7 °F 6.8 °F 92% 30.13 in 10.0 mi West 9.2 mph - N/A   Clear
6:54 AM 8.6 °F -2.6 °F 5.0 °F 85% 30.13 in 10.0 mi West 6.9 mph - N/A   Clear
7:14 AM 8.6 °F -3.7 °F 3.2 °F 79% 30.13 in 10.0 mi West 8.1 mph - N/A   Clear
7:33 AM 8.6 °F -3.7 °F 5.0 °F 85% 30.13 in 10.0 mi West 8.1 mph - N/A   Clear
7:54 AM 8.6 °F -1.3 °F 5.0 °F 85% 30.13 in 10.0 mi West 5.8 mph - N/A   Clear
8:14 AM 10.4 °F 0.8 °F 6.8 °F 85% 30.14 in 10.0 mi West 5.8 mph - N/A   Clear
9:14 AM 15.8 °F 6.1 °F 8.6 °F 73% 30.15 in 10.0 mi West 6.9 mph - N/A   Clear
9:33 AM 15.8 °F 10.2 °F 10.4 °F 79% 30.15 in 10.0 mi West 3.5 mph - N/A   Clear
9:54 AM 17.6 °F - 10.4 °F 73% 30.14 in 10.0 mi Calm Calm - N/A   Clear
10:14 AM 19.4 °F - 8.6 °F 63% 30.14 in 10.0 mi Calm Calm - N/A   Clear
10:34 AM 19.4 °F 14.3 °F 8.6 °F 63% 30.14 in 10.0 mi NNW 3.5 mph - N/A   Clear
11:14 AM 23.0 °F - 8.6 °F 54% 30.13 in 10.0 mi Calm Calm - N/A   Clear
11:34 AM 24.8 °F 20.5 °F 6.8 °F 46% 30.12 in 10.0 mi SSW 3.5 mph - N/A   Clear
11:54 AM 24.8 °F 19.1 °F 6.8 °F 46% 30.10 in 10.0 mi SSW 4.6 mph - N/A   Clear
12:14 PM 24.8 °F 19.1 °F 3.2 °F 40% 30.10 in 10.0 mi SW 4.6 mph - N/A   Clear
12:34 PM 26.6 °F 18.2 °F 3.2 °F 37% 30.09 in 10.0 mi SW 8.1 mph - N/A   Clear
12:54 PM 26.6 °F 20.0 °F 3.2 °F 37% 30.07 in 10.0 mi SSW 5.8 mph - N/A   Clear
1:14 PM 28.4 °F 23.3 °F 3.2 °F 34% 30.06 in 10.0 mi South 4.6 mph - N/A   Clear
1:34 PM 28.4 °F 22.2 °F 3.2 °F 34% 30.05 in 10.0 mi South 5.8 mph - N/A   Clear
1:53 PM 28.4 °F 21.2 °F 1.4 °F 31% 30.04 in 10.0 mi South 6.9 mph - N/A   Clear
2:14 PM 28.4 °F 23.3 °F 3.2 °F 34% 30.02 in 10.0 mi SE 4.6 mph - N/A   Clear
2:34 PM 28.4 °F 23.3 °F 3.2 °F 34% 30.02 in 10.0 mi SSE 4.6 mph - N/A   Clear
2:54 PM 28.4 °F 20.4 °F 3.2 °F 34% 30.01 in 10.0 mi SSE 8.1 mph - N/A   Clear
3:14 PM 26.6 °F 19.1 °F 1.4 °F 34% 30.01 in 10.0 mi South 6.9 mph - N/A   Clear
3:33 PM 28.4 °F 20.4 °F 1.4 °F 31% 29.99 in 10.0 mi SE 8.1 mph - N/A   Clear
3:54 PM 26.6 °F 19.1 °F 1.4 °F 34% 29.99 in 10.0 mi SE 6.9 mph - N/A   Clear
4:13 PM 26.6 °F 17.5 °F 3.2 °F 37% 29.98 in 10.0 mi SE 9.2 mph - N/A   Mostly Cloudy
4:34 PM 26.6 °F 18.2 °F 3.2 °F 37% 29.96 in 10.0 mi SE 8.1 mph - N/A   Overcast
4:54 PM 26.6 °F 18.2 °F 3.2 °F 37% 29.96 in 10.0 mi ESE 8.1 mph - N/A   Mostly Cloudy
5:13 PM 26.6 °F 18.2 °F 3.2 °F 37% 29.95 in 10.0 mi ESE 8.1 mph - N/A   Scattered Clouds
5:34 PM 26.6 °F 18.2 °F 3.2 °F 37% 29.95 in 10.0 mi ESE 8.1 mph - N/A   Scattered Clouds
5:54 PM 24.8 °F 14.6 °F 3.2 °F 40% 29.93 in 10.0 mi ESE 10.4 mph - N/A   Mostly Cloudy
6:14 PM 26.6 °F 17.5 °F 5.0 °F 40% 29.93 in 10.0 mi ESE 9.2 mph - N/A   Overcast
6:34 PM 26.6 °F 14.7 °F 5.0 °F 40% 29.93 in 10.0 mi SE 15.0 mph - N/A   Mostly Cloudy
6:54 PM 26.6 °F 15.2 °F 5.0 °F 40% 29.92 in 10.0 mi SE 13.8 mph - N/A   Mostly Cloudy
7:14 PM 26.6 °F 15.2 °F 6.8 °F 43% 29.90 in 10.0 mi SE 13.8 mph - N/A   Overcast
7:34 PM 26.6 °F 15.7 °F 6.8 °F 43% 29.90 in 10.0 mi SE 12.7 mph - N/A   Overcast
7:54 PM 26.6 °F 15.2 °F 6.8 °F 43% 29.88 in 10.0 mi ESE 13.8 mph - N/A   Overcast
8:14 PM 26.6 °F 15.7 °F 6.8 °F 43% 29.85 in 10.0 mi ESE 12.7 mph - N/A   Mostly Cloudy
8:34 PM 26.6 °F 14.7 °F 6.8 °F 43% 29.84 in 10.0 mi ESE 15.0 mph 19.6 mph N/A   Mostly Cloudy
8:54 PM 26.6 °F 14.3 °F 6.8 °F 43% 29.82 in 10.0 mi ESE 16.1 mph - N/A   Overcast
9:14 PM 26.6 °F 13.4 °F 6.8 °F 43% 29.82 in 10.0 mi ESE 18.4 mph - N/A   Mostly Cloudy
9:54 PM 28.4 °F 16.2 °F 6.8 °F 40% 29.77 in 10.0 mi ESE 17.3 mph 24.2 mph N/A   Mostly Cloudy
10:34 PM 28.4 °F 16.2 °F 6.8 °F 40% 29.74 in 10.0 mi ESE 17.3 mph 24.2 mph N/A   Mostly Cloudy
10:54 PM 28.4 °F 15.4 °F 6.8 °F 40% 29.71 in 10.0 mi ESE 19.6 mph 23.0 mph N/A   Overcast
11:14 PM 28.4 °F 16.2 °F 6.8 °F 40% 29.69 in 10.0 mi ESE 17.3 mph - N/A   Mostly Cloudy
11:34 PM 26.6 °F 13.8 °F 8.6 °F 47% 29.68 in 10.0 mi ESE 17.3 mph 21.9 mph N/A   Scattered Clouds
11:53 PM 26.6 °F 16.2 °F 8.6 °F 47% 29.68 in 10.0 mi ESE 11.5 mph - N/A   Clear